Hayward, WI

1:07 AM CST on November 20, 2019 (GMT -0600)
Sawyer County

Weather History for KHYR - September, 2019

Change the Weather History Date:

Sunday, September 1, 2019

  Actual Average Record
Temperature  
Mean Temperature 56 °F -  
Max Temperature 66 °F 73 °F 88 °F (2008)
Min Temperature 45 °F 54 °F 36 °F (2001)
Degree Days  
Heating Degree Days 10    
Growing Degree Days 6 (Base 50)    
Moisture  
Dew Point 53 °F    
Average Humidity 81    
Maximum Humidity 93    
Minimum Humidity 59    
Precipitation  
Precipitation 0.00 in - - ()
Sea Level Pressure  
Sea Level Pressure 30.11 in    
Wind  
Wind Speed 3 mph (SSW)    
Max Wind Speed 13 mph    
Max Gust Speed -    
Visibility 10 miles    
Events Rain    
Averages and records for this station are not official NWS values.
T = Trace of Precipitation, MM = Missing Value Source: NWS Daily Summary

Daily Weather History Graph

Daily Weather History Graph

Search for Another Location

Airport or City:

Astronomy

Sep. 01, 2019 Rise Set
Actual Time 6:26 AM CDT 7:44 PM CDT
Civil Twilight 5:55 AM CDT 8:15 PM CDT
Nautical Twilight 5:17 AM CDT 8:52 PM CDT
Astronomical Twilight 4:38 AM CDT 9:32 PM CDT
Moon 9:03 AM CDT (9/1) 9:23 PM CDT (9/1)
Length of Visible Light 14h 20m
Length of Day
13h 18m
Waxing Crescent, 8% of the Moon is Illuminated
Sep 1
Waxing Crescent
Sep 5
First Quarter
Sep 13
Full
Sep 21
Last Quarter
Sep 28
New

Hourly Weather History & Observations

Time (CDT) Temp. Dew Point Humidity Pressure Visibility Wind Dir Wind Speed Gust Speed Precip Events Conditions
12:53 AM 46.0 °F 43.0 °F 89% 30.22 in 10.0 mi Calm Calm - N/A   Clear
1:53 AM 45.0 °F 42.1 °F 90% 30.22 in 10.0 mi Calm Calm - N/A   Clear
2:53 AM 46.0 °F 44.1 °F 93% 30.20 in 10.0 mi Calm Calm - N/A   Overcast
3:53 AM 46.9 °F 44.1 °F 90% 30.19 in 10.0 mi Calm Calm - N/A   Mostly Cloudy
4:53 AM 46.9 °F 44.1 °F 90% 30.18 in 10.0 mi Calm Calm - N/A   Clear
5:53 AM 48.9 °F 46.0 °F 90% 30.17 in 10.0 mi Calm Calm - N/A   Mostly Cloudy
6:53 AM 52.0 °F 48.9 °F 89% 30.16 in 10.0 mi Calm Calm - N/A   Overcast
7:53 AM 55.9 °F 52.0 °F 87% 30.17 in 10.0 mi Calm Calm - N/A   Overcast
8:53 AM 59.0 °F 53.1 °F 81% 30.16 in 10.0 mi South 5.8 mph - N/A   Overcast
9:53 AM 60.1 °F 53.1 °F 78% 30.14 in 10.0 mi SSW 8.1 mph - N/A   Overcast
10:53 AM 62.1 °F 53.1 °F 72% 30.14 in 10.0 mi South 8.1 mph - N/A   Overcast
11:53 AM 66.9 °F 52.0 °F 59% 30.11 in 10.0 mi South 12.7 mph - N/A   Overcast
12:53 PM 63.0 °F 53.1 °F 70% 30.11 in 5.0 mi SSW 8.1 mph - 0.00 in Rain Light Rain
1:53 PM 66.0 °F 54.0 °F 65% 30.10 in 10.0 mi SW 8.1 mph - 0.00 in   Overcast
2:53 PM 64.9 °F 53.1 °F 65% 30.08 in 10.0 mi SSW 11.5 mph - 0.00 in   Overcast
3:53 PM 64.9 °F 55.0 °F 70% 30.07 in 10.0 mi South 11.5 mph - N/A   Overcast
4:53 PM 64.9 °F 55.0 °F 70% 30.06 in 10.0 mi SSW 10.4 mph - N/A   Overcast
5:53 PM 64.9 °F 55.9 °F 73% 30.06 in 10.0 mi SSW 8.1 mph - N/A   Overcast
6:53 PM 64.0 °F 55.9 °F 75% 30.05 in 10.0 mi SW 4.6 mph - N/A   Overcast
7:53 PM 64.0 °F 57.9 °F 80% 30.05 in 10.0 mi WSW 5.8 mph - N/A   Overcast
8:53 PM 63.0 °F 57.9 °F 84% 30.06 in 10.0 mi Calm Calm - N/A   Overcast
9:32 PM 63.0 °F 59.0 °F 87% 30.05 in 10.0 mi Calm Calm - N/A   Overcast
9:49 PM 62.6 °F 59.0 °F 88% 30.06 in 10.0 mi Variable 3.5 mph - N/A   Overcast
9:53 PM 63.0 °F 59.0 °F 87% 30.06 in 10.0 mi Calm Calm - N/A   Overcast
10:04 PM 63.0 °F 59.0 °F 87% 30.06 in 10.0 mi WSW 3.5 mph - N/A   Overcast
10:20 PM 63.0 °F 59.0 °F 87% 30.06 in 10.0 mi Calm Calm - N/A   Overcast
10:53 PM 63.0 °F 59.0 °F 87% 30.07 in 10.0 mi Calm Calm - N/A   Overcast
11:41 PM 62.1 °F 57.9 °F 86% 30.07 in 9.0 mi WSW 3.5 mph - N/A   Overcast
11:53 PM 61.0 °F 57.9 °F 90% 30.07 in 8.0 mi Calm Calm - N/A   Mostly Cloudy